Barrow, AK

4:18 AM AKDT on June 22, 2018 (GMT -0800)
Wiley Post-Will Rogers Memorial

Weather History for PABR - January, 2017

Change the Weather History Date:

Monday, January 23, 2017

  Actual Average Record
Temperature  
Mean Temperature -24 °F -14 °F  
Max Temperature -14 °F -8 °F 25 °F (1930)
Min Temperature -34 °F -20 °F -47 °F (1947)
Degree Days  
Heating Degree Days 89 79  
Month to date heating degree days 1503 1797  
Since 1 July heating degree days 8462 10006  
Cooling Degree Days 0 0  
Month to date cooling degree days 0 0  
Year to date cooling degree days 0 0  
Moisture  
Dew Point -30 °F    
Average Humidity 75    
Maximum Humidity 81    
Minimum Humidity 69    
Precipitation  
Precipitation T in 0.00 in 0.18 in (1950)
Month to date precipitation 0.46 0.10  
Year to date precipitation 0.46 0.10  
Snow  
Snow T in 0.00 in 2.10 in (1934)
Month to date snowfall 4.4 1.9  
Since 1 July snowfall 21.7 25.7  
Snow Depth 6.00 in    
Sea Level Pressure  
Sea Level Pressure 29.95 in    
Wind  
Wind Speed 5 mph (SE)    
Max Wind Speed 13 mph    
Max Gust Speed -    
Visibility 5 miles    
Events Fog , Snow    
T = Trace of Precipitation, MM = Missing Value Source: NWS Daily Summary

Daily Weather History Graph

Daily Weather History Graph

Search for Another Location

Airport or City:

Astronomy

Jan. 23, 2017 Rise Set
Actual Time 12:55 PM AKST 2:23 PM AKST
Civil Twilight 10:32 AM AKST 4:46 PM AKST
Nautical Twilight 8:59 AM AKST 6:19 PM AKST
Astronomical Twilight 7:41 AM AKST 7:37 PM AKST
Moon 8:53 AM AKST (1/23) 11:31 AM AKST (1/23)
Length of Visible Light 6h 14m
Length of Day
1h 28m
Waning Crescent, 16% of the Moon is Illuminated
Jan 23
Waning Crescent
Jan 27
New
Feb 3
First Quarter
Feb 10
Full
Feb 18
Last Quarter

Hourly Weather History & Observations

Time (AKST) Temp. Windchill Dew Point Humidity Pressure Visibility Wind Dir Wind Speed Gust Speed Precip Events Conditions
12:00 AM -23.1 °F - -29.0 °F 74% 29.99 in 2.0 mi Calm Calm - N/A   Haze
12:07 AM -27.9 °F -39.8 °F -33.0 °F 77% 29.99 in 1.5 mi SSE 3.5 mph - 0.00 in Snow Light Snow
12:12 AM -32.1 °F -47.3 °F - N/A% 29.99 in 4.0 mi SE 4.6 mph - 0.00 in Snow Light Snow
12:18 AM -31.0 °F -46.1 °F - N/A% 29.99 in 2.0 mi SSE 4.6 mph - 0.00 in Snow Light Snow
12:21 AM -31.0 °F -43.3 °F - N/A% 29.99 in 0.8 mi SSE 3.5 mph - 0.00 in Snow Light Snow
12:29 AM -29.9 °F -44.8 °F - N/A% 29.99 in 1.0 mi SE 4.6 mph - 0.00 in Snow Light Snow
12:37 AM -31.0 °F -46.1 °F - N/A% 29.99 in 1.0 mi SE 4.6 mph - 0.00 in Snow Light Snow
12:53 AM -27.9 °F -44.7 °F -33.0 °F 77% 30.00 in 2.0 mi SE 5.8 mph - 0.00 in   Haze
1:06 AM -27.9 °F -44.7 °F -32.1 °F 81% 29.99 in 1.2 mi SE 5.8 mph - 0.00 in Fog Light Freezing Fog
1:24 AM -31.0 °F -50.3 °F - N/A% 29.99 in 1.0 mi SE 6.9 mph - 0.00 in Fog Light Freezing Fog
1:38 AM -29.9 °F -47.1 °F - N/A% 29.99 in 1.0 mi SE 5.8 mph - 0.00 in Fog Light Freezing Fog
1:53 AM -29.0 °F -46.0 °F -34.1 °F 77% 30.00 in 1.0 mi SE 5.8 mph - 0.00 in Fog Light Freezing Fog
1:55 AM -29.9 °F -47.1 °F - N/A% 29.98 in 1.0 mi SE 5.8 mph - N/A Fog Light Freezing Fog
2:00 AM -29.9 °F -50.6 °F - N/A% 29.98 in 1.0 mi SE 8.1 mph - N/A Fog Light Freezing Fog
2:34 AM -29.0 °F -46.0 °F -34.1 °F 77% 29.98 in 3.0 mi South 5.8 mph - N/A Fog Light Freezing Fog
2:53 AM -27.0 °F -43.7 °F -32.1 °F 77% 29.99 in 5.0 mi SSE 5.8 mph - N/A Fog Light Freezing Fog
3:01 AM -26.0 °F -40.2 °F -32.1 °F 73% 29.98 in 6.0 mi SSE 4.6 mph - N/A Fog Light Freezing Fog
3:53 AM -22.0 °F -33.0 °F -27.9 °F 74% 29.99 in 6.0 mi SW 3.5 mph - N/A Fog Light Freezing Fog
4:00 AM -22.0 °F -33.0 °F -27.9 °F 74% 29.97 in 6.0 mi SW 3.5 mph - N/A Fog Light Freezing Fog
4:53 AM -26.0 °F -37.5 °F -31.0 °F 77% 29.98 in 7.0 mi East 3.5 mph - 0.00 in Snow Light Snow
5:03 AM -29.9 °F -42.0 °F - N/A% 29.97 in 9.0 mi ESE 3.5 mph - 0.00 in   Scattered Clouds
5:53 AM -32.1 °F -49.6 °F - N/A% 29.97 in 10.0 mi SE 5.8 mph - 0.00 in   Clear
6:53 AM -33.0 °F -52.7 °F - N/A% 29.96 in 10.0 mi SE 6.9 mph - N/A   Clear
7:53 AM -33.0 °F -55.9 °F - N/A% 29.96 in 10.0 mi SE 9.2 mph - N/A   Clear
8:53 AM -31.0 °F -50.3 °F - N/A% 29.95 in 6.0 mi SE 6.9 mph - N/A   Scattered Clouds
9:53 AM -31.0 °F -50.3 °F - N/A% 29.95 in 9.0 mi ESE 6.9 mph - 0.00 in Snow Light Snow
10:53 AM -32.1 °F -51.6 °F - N/A% 29.95 in 9.0 mi SE 6.9 mph - 0.00 in Snow Light Snow
11:53 AM -32.1 °F -51.6 °F - N/A% 29.95 in 8.0 mi SSE 6.9 mph - 0.00 in Snow Light Snow
12:53 PM -29.9 °F -49.0 °F - N/A% 29.95 in 9.0 mi SSE 6.9 mph - 0.00 in Snow Light Snow
1:53 PM -29.0 °F - -36.0 °F 69% 29.94 in 10.0 mi Calm Calm - 0.00 in   Partly Cloudy
2:53 PM -27.0 °F -38.7 °F -34.1 °F 69% 29.92 in 10.0 mi East 3.5 mph - N/A   Clear
3:53 PM -29.0 °F -46.0 °F -35.0 °F 73% 29.91 in 3.0 mi East 5.8 mph - 0.00 in Snow Light Snow
4:26 PM -27.0 °F -43.7 °F -34.1 °F 69% 29.89 in 3.0 mi East 5.8 mph - 0.00 in   Haze
4:53 PM -26.0 °F -42.4 °F -32.1 °F 73% 29.89 in 10.0 mi ESE 5.8 mph - 0.00 in   Clear
5:53 PM -22.0 °F - -27.9 °F 74% 29.88 in 7.0 mi Calm Calm - 0.00 in   Clear
6:53 PM -18.9 °F -35.8 °F -24.0 °F 78% 29.87 in 3.0 mi NE 6.9 mph - N/A   Haze
7:53 PM -17.0 °F -36.1 °F -22.0 °F 78% 29.85 in 6.0 mi NE 9.2 mph - N/A   Haze
8:53 PM -15.0 °F -33.7 °F -20.0 °F 78% 29.83 in 8.0 mi NNE 9.2 mph - N/A   Clear
9:53 PM -15.0 °F -35.9 °F -20.9 °F 75% 29.81 in 8.0 mi NE 11.5 mph - N/A   Clear
10:53 PM -18.0 °F -40.7 °F -24.0 °F 74% 29.81 in 9.0 mi ENE 12.7 mph - N/A   Clear
11:53 PM -18.9 °F -41.8 °F -25.1 °F 74% 29.79 in 6.0 mi ENE 12.7 mph - N/A   Haze